Weather History for Howell, MI

Change the Weather History Date:

Saturday, January 12, 2013

  Actual Average Record
Temperature  
Mean Temperature 52 °F -  
Max Temperature 60 °F 28 °F 60 °F (2013)
Min Temperature 46 °F 16 °F 10 °F (1999)
Degree Days  
Heating Degree Days 12    
Growing Degree Days 2 (Base 50)    
Moisture  
Dew Point 42 °F    
Average Humidity 73    
Maximum Humidity 87    
Minimum Humidity 53    
Precipitation  
Precipitation 0.00 in - - ()
Sea Level Pressure  
Sea Level Pressure 29.87 in    
Wind  
Wind Speed 7 mph (SSW)    
Max Wind Speed 14 mph    
Max Gust Speed 20 mph    
Visibility 10 miles    
Events Rain    
Averages and records for this station are not official NWS values.
T = Trace of Precipitation, MM = Missing Value Source: NWS Daily Summary

Daily Weather History Graph

Daily Weather History Graph

Search for Another Location

Airport:

Trip Planner

Search our weather history database for the weather conditions in past years. The results will help you decide how hot, cold, wet, or windy it might be!

Date:

Astronomy

Jan. 12, 2013 Rise Set
Actual Time 8:04 AM EST 5:24 PM EST
Civil Twilight 7:33 AM EST 5:56 PM EST
Nautical Twilight 6:58 AM EST 6:31 PM EST
Astronomical Twilight 6:24 AM EST 7:04 PM EST
Moon 8:20 AM EST (1/12) 6:55 PM EST (1/12)
Length of Visible Light 10h 23m
Length of Day
9h 20m
New Moon, 1% of the Moon is Illuminated
Jan 12
New Moon
Jan 18
First Quarter
Jan 26
Full
Feb 3
Last Quarter
Feb 10
New

Hourly Weather History & Observations

Time (EST) Temp. Windchill Dew Point Humidity Pressure Visibility Wind Dir Wind Speed Gust Speed Precip Events Conditions
12:15 AM 47.8 °F - 43.9 °F 86% 29.82 in 10.0 mi SSW 6.9 mph - N/A   Clear
12:35 AM 47.3 °F - 43.5 °F 87% 29.82 in 10.0 mi South 8.1 mph - N/A   Clear
12:54 AM 47.3 °F - 43.7 °F 87% 29.81 in 10.0 mi South 6.9 mph - N/A   Clear
1:15 AM 47.3 °F - 43.7 °F 87% 29.82 in 10.0 mi South 6.9 mph - N/A   Clear
1:34 AM 47.3 °F - 43.7 °F 87% 29.80 in 10.0 mi South 9.2 mph - N/A   Clear
1:55 AM 48.0 °F - 44.2 °F 87% 29.81 in 10.0 mi South 9.2 mph - N/A   Clear
2:14 AM 47.7 °F - 44.1 °F 87% 29.82 in 10.0 mi South 8.1 mph - N/A   Clear
2:34 AM 47.8 °F - 44.2 °F 87% 29.83 in 10.0 mi SSW 6.9 mph - N/A   Clear
2:55 AM 47.3 °F - 43.7 °F 87% 29.83 in 7.0 mi SSW 5.8 mph - N/A   Clear
3:14 AM 47.3 °F - 43.7 °F 87% 29.83 in 7.0 mi SSW 5.8 mph - N/A   Clear
3:35 AM 47.3 °F - 43.7 °F 87% 29.83 in 10.0 mi South 5.8 mph - N/A   Clear
3:55 AM 47.7 °F - 44.1 °F 87% 29.83 in 10.0 mi SSW 6.9 mph - N/A   Clear
4:35 AM 47.5 °F - 43.7 °F 87% 29.81 in 10.0 mi South 6.9 mph - N/A   Clear
4:55 AM 47.3 °F - 43.5 °F 87% 29.81 in 10.0 mi South 6.9 mph - N/A   Clear
5:14 AM 46.9 °F - 43.2 °F 87% 29.80 in 10.0 mi SSW 4.6 mph - N/A   Clear
5:35 AM 46.8 °F - 43.0 °F 87% 29.80 in 10.0 mi South 6.9 mph - N/A   Clear
5:54 AM 47.5 °F - 43.7 °F 87% 29.81 in 10.0 mi SSW 4.6 mph - N/A   Clear
6:15 AM 46.9 °F - 42.8 °F 86% 29.81 in 10.0 mi South 6.9 mph - N/A   Clear
6:35 AM 47.3 °F - 43.0 °F 85% 29.82 in 10.0 mi South 8.1 mph - N/A   Clear
6:54 AM 47.3 °F - 42.8 °F 84% 29.83 in 10.0 mi South 6.9 mph - N/A   Clear
7:15 AM 47.5 °F - 42.8 °F 84% 29.83 in 10.0 mi South 8.1 mph - N/A   Clear
7:35 AM 46.8 °F - 42.1 °F 84% 29.84 in 10.0 mi South 6.9 mph - N/A   Clear
7:54 AM 46.8 °F - 42.3 °F 84% 29.84 in 10.0 mi South 8.1 mph - N/A   Clear
8:15 AM 46.4 °F 42.9 °F 42.1 °F 85% 29.85 in 10.0 mi South 6.9 mph - N/A   Clear
8:35 AM 46.6 °F - 42.3 °F 85% 29.88 in 10.0 mi SSW 5.8 mph - N/A   Clear
8:54 AM 47.3 °F - 42.8 °F 84% 29.88 in 10.0 mi SSW 6.9 mph - N/A   Clear
9:15 AM 48.2 °F - 43.2 °F 83% 29.88 in 10.0 mi SSW 5.8 mph - N/A   Clear
9:35 AM 49.3 °F - 43.7 °F 81% 29.88 in 10.0 mi SSW 6.9 mph - N/A   Clear
9:54 AM 50.0 °F - 43.9 °F 79% 29.88 in 10.0 mi SSW 9.2 mph - N/A   Clear
10:15 AM 50.5 °F - 44.4 °F 80% 29.89 in 10.0 mi SSW 8.1 mph - N/A   Clear
10:34 AM 51.4 °F - 45.0 °F 79% 29.89 in 10.0 mi SSW 9.2 mph - N/A   Clear
10:55 AM 52.5 °F - 45.1 °F 76% 29.89 in 10.0 mi SSW 8.1 mph - N/A   Clear
11:14 AM 53.1 °F - 45.5 °F 75% 29.89 in 10.0 mi SSW 9.2 mph - N/A   Clear
11:34 AM 54.0 °F - 46.0 °F 75% 29.88 in 10.0 mi SSW 8.1 mph - N/A   Clear
11:55 AM 54.9 °F - 46.0 °F 72% 29.87 in 10.0 mi SW 9.2 mph - N/A   Clear
12:14 PM 55.6 °F - 46.2 °F 71% 29.87 in 10.0 mi SSW 9.2 mph - N/A   Clear
12:35 PM 56.3 °F - 46.2 °F 69% 29.87 in 10.0 mi SSW 11.5 mph - N/A   Clear
1:14 PM 57.2 °F - 46.0 °F 66% 29.86 in 10.0 mi SW 8.1 mph - N/A   Clear
1:35 PM 57.7 °F - 45.3 °F 63% 29.87 in 10.0 mi SW 10.4 mph 16.1 mph N/A   Clear
1:55 PM 59.4 °F - 45.3 °F 60% 29.87 in 10.0 mi SW 13.8 mph 18.4 mph N/A   Clear
2:14 PM 59.5 °F - 44.6 °F 58% 29.88 in 10.0 mi WSW 13.8 mph 19.6 mph N/A   Clear
2:35 PM 59.9 °F - 44.1 °F 56% 29.89 in 10.0 mi WSW 12.7 mph 17.3 mph N/A   Clear
2:55 PM 59.4 °F - 43.2 °F 55% 29.90 in 10.0 mi SW 11.5 mph 16.1 mph N/A   Clear
3:14 PM 58.3 °F - 42.1 °F 55% 29.90 in 10.0 mi SW 13.8 mph 18.4 mph N/A   Clear
3:35 PM 58.1 °F - 41.7 °F 54% 29.90 in 10.0 mi SW 9.2 mph 17.3 mph N/A   Clear
3:55 PM 57.9 °F - 41.5 °F 54% 29.90 in 10.0 mi SW 9.2 mph - N/A   Clear
4:14 PM 57.6 °F - 40.3 °F 53% 29.90 in 10.0 mi SW 8.1 mph - N/A   Clear
4:35 PM 56.3 °F - 41.0 °F 57% 29.91 in 10.0 mi SW 4.6 mph - N/A   Clear
4:55 PM 55.4 °F - 40.6 °F 58% 29.91 in 10.0 mi SW 5.8 mph - N/A   Clear
5:14 PM 55.0 °F - 40.5 °F 58% 29.92 in 10.0 mi WSW 6.9 mph - N/A   Clear
5:35 PM 54.5 °F - 41.0 °F 60% 29.93 in 10.0 mi WSW 5.8 mph - N/A   Clear
5:54 PM 54.3 °F - 40.6 °F 60% 29.91 in 10.0 mi WSW 3.5 mph - N/A   Clear
6:15 PM 54.3 °F - 40.5 °F 59% 29.91 in 10.0 mi West 3.5 mph - N/A   Clear
6:35 PM 52.9 °F - 40.6 °F 63% 29.91 in 10.0 mi Calm Calm - N/A   Clear
6:54 PM 52.7 °F - 40.8 °F 64% 29.91 in 10.0 mi Calm Calm - N/A   Clear
7:15 PM 51.8 °F - 41.0 °F 67% 29.92 in 10.0 mi Calm Calm - N/A   Clear
7:35 PM 51.4 °F - 40.8 °F 67% 29.91 in 10.0 mi Calm Calm - N/A   Clear
7:54 PM 51.6 °F - 41.0 °F 67% 29.91 in 10.0 mi Calm Calm - N/A   Clear
8:15 PM 50.9 °F - 41.0 °F 69% 29.91 in 10.0 mi WNW 3.5 mph - N/A   Clear
8:54 PM 50.0 °F - 41.4 °F 72% 29.90 in 10.0 mi NW 4.6 mph - N/A   Clear
9:15 PM 50.2 °F - 39.6 °F 67% 29.90 in 10.0 mi NNW 3.5 mph - N/A   Scattered Clouds
9:35 PM 50.4 °F - 37.4 °F 61% 29.89 in 10.0 mi NNW 3.5 mph - N/A   Mostly Cloudy
9:54 PM 49.6 °F - 36.9 °F 61% 29.89 in 10.0 mi Calm Calm - N/A   Overcast
10:15 PM 48.0 °F - 37.6 °F 67% 29.89 in 10.0 mi Calm Calm - N/A   Overcast
10:34 PM 48.4 °F - 37.2 °F 65% 29.88 in 10.0 mi Calm Calm - N/A   Overcast
10:54 PM 48.2 °F - 33.1 °F 56% 29.88 in 10.0 mi NNE 3.5 mph - N/A   Overcast
11:34 PM 47.8 °F - 32.0 °F 54% 29.87 in 10.0 mi North 5.8 mph - N/A   Overcast
11:54 PM 46.2 °F 45.0 °F 32.0 °F 58% 29.87 in 10.0 mi North 3.5 mph - N/A Rain Rain